Zorg en Hoop Airport

Jump to: basic info | weather | comments

Related pages: nearby airports | nearby navaids | notams | map

Basic information (top)

Codes: ORG SMZO
Location: lon 5.811080, lat -55.190701, elev 10 ft / 3 m msl
Status: small_airport

Weather (top)

Current conditions (rec'd 2014/08/22 09:00Z):

SMZO 220900Z 00000KT 9999 FEW010 24/23 Q1014 NOSIG

Airport forecast (rec'd 2014/08/20 00:06Z):

TAF TAF SMZO 200400Z 2000/2024 02003KT 8000 FEW012 SCT030 TX33/2018Z TN25/2010Z 
     FM201200 10012KT 9999 SCT018 
      TEMPO 2016/2022 VRB10G24KT 3000 TSRA SCT015CB SCT020 
     FM210100 03003KT 9999 FEW010 SCT035

Latest comments (top)

KLM flights from Caracas - Paramaribo - Dakar - Madrid - fra: I would like to know if this airport ... [read]

More... (top)

See also NOTAMs and nearby airports and navaids, or visit the Zorg en Hoop Airport page at the main OurAirports website..